Flag for U.S.A. Weather past 2 weeks in Racine, Wisconsin, U.S.A.

Now
61 °F

Partly sunny.


Feels Like: 61 °F
Forecast: 60 / 76 °F
Wind: No wind

Location: Batten International Airport

Current Time: Jul 28, 2014 at 8:31:50 PM

Latest Report: Jul 28, 2014 at 7:53 PM


Visibility: 10 mi

Pressure: 30.07 "Hg

Humidity: 62%

Dew point: 48 °F

Location of RacineLocation

Historic Weather in Racine — Graph

°F

Racine temperature yesterday

Maximum temperature yesterday: 83 °F (at 11:53 AM)
Minimum temperature yesterday: 63 °F (at 8:53 PM)
Average temperature yesterday: 72 °F

Past Weeks' High & Low Weather Summary

 TemperatureHumidityPressure
High86 °F (Jul 22, 11:53 AM)93% (Jul 15, 9:53 PM)30.22 "Hg (Jul 15, 9:53 PM)
Low53 °F (Jul 24, 3:53 AM)35% (Jul 14, 3:53 PM)29.69 "Hg (Jul 27, 12:53 PM)
Average67 °F70%30.01 "Hg
* Reported Jul 13 6:53 PM — Jul 28 6:53 PM, Racine, Weather by CustomWeather, © 2014

Note: Actual official high and low records may vary slightly from our data, if they occured in-between our weather recording intervals... More about our weather records

Advertising

Racine weather history for previous 24 hours

 ConditionsComfort  
Time TempWeatherWind HumidityBarometerVisibility
6:53 PM
Jul 28
62 °FPassing clouds.5 mph62%30.08 "Hg10 mi
5:53 PM64 °FSunny.3 mph58%30.09 "Hg10 mi
4:53 PM65 °FSunny.7 mph59%30.10 "Hg10 mi
3:53 PM65 °FSunny.10 mph59%30.10 "Hg10 mi
2:53 PM66 °FSunny.12 mph56%30.10 "Hg10 mi
1:53 PM66 °FSunny.14 mph56%30.10 "Hg10 mi
12:53 PM65 °FSunny.14 mph56%30.10 "Hg10 mi
11:53 AM64 °FSunny.13 mph56%30.11 "Hg10 mi
10:53 AM62 °FSunny.18 mph58%30.10 "Hg10 mi
9:53 AM61 °FSunny.21 mph58%30.10 "Hg10 mi
8:53 AM59 °FPassing clouds.21 mph64%30.09 "Hg10 mi
7:53 AM58 °FSunny.15 mph65%30.06 "Hg10 mi
6:53 AM57 °FSunny.12 mph69%30.03 "Hg10 mi
5:53 AM56 °FClear.12 mph75%30.01 "Hg10 mi
4:53 AM58 °FClear.10 mph72%29.99 "Hg10 mi
3:53 AM59 °FClear.12 mph69%29.97 "Hg10 mi
2:53 AM60 °FClear.12 mph69%29.96 "Hg10 mi
1:53 AM61 °FClear.12 mph67%29.95 "Hg10 mi
12:53 AM62 °FMostly cloudy.14 mph70%29.94 "Hg10 mi
11:53 PM
Jul 27
63 °FOvercast.15 mph70%29.93 "Hg10 mi
10:53 PM63 °FOvercast.14 mph78%29.92 "Hg10 mi
9:53 PM63 °FOvercast.12 mph87%29.90 "Hg10 mi
8:53 PM63 °FMostly cloudy.13 mph90%29.87 "Hg10 mi
Weather by CustomWeather, © 2014

See weather overviewHow to use our weather pages